Volver al catálogo

STARLINK-30609

ActivoComunicacionesVLEO
NORAD 58085·PAYLOAD·🇺🇸 United States

Lanzado Oct 18, 2023 desde Cape Canaveral Space Force Station

Loading…

Próximos Pases (próximas 24 horas)

TLE

ActualizadoSource: CelesTrak SupGP

Época: Sep 14, 2026, 22:42 UTC

1 58085C 23160L   26257.94631944  .00053710  00000+0  19453-2 0  2576
2 58085  43.0000  92.5375 0001493 269.3491 298.9331 15.27552862    16

Sigue STARLINK-30609 en tiempo real con AllMySat

Download on the App Store